![]() |
EMODnet Physics ERDDAP
Easier access to scientific data |
log in|
Brought to you by EMODnet Physics |
| Dataset Title: | NDBC - Collection of dew point temperature (DEWT) TimeSeries - IN SITU MultiPointTimeSeriesObservation
|
| Institution: | NDBC (Dataset ID: TS_DEWT_NDBC) |
| Information: | Summary
| License
| FGDC
| ISO 19115
| Metadata
| Background
| Subset
| Data Access Form
| Make a graph
|
| Name | Last modified | Size | Description | |
|---|---|---|---|---|
| Parent Directory | - | - | ||
| 52201_TS_DEWT_012011.nc | 07-Oct-2024 15:19 | 450934 | ||
| 52201_TS_DEWT_012013.nc | 07-Oct-2024 15:59 | 450602 | ||
| 52201_TS_DEWT_012015.nc | 07-Oct-2024 16:28 | 451159 | ||
| 52201_TS_DEWT_012017.nc | 07-Oct-2024 17:02 | 450424 | ||
| 52201_TS_DEWT_012018.nc | 07-Oct-2024 17:43 | 451143 | ||
| 52201_TS_DEWT_012019.nc | 07-Oct-2024 18:24 | 450726 | ||
| 52201_TS_DEWT_012020.nc | 07-Oct-2024 18:46 | 450627 | ||
| 52201_TS_DEWT_012021.nc | 07-Oct-2024 19:09 | 449406 | ||
| 52201_TS_DEWT_012024.nc | 07-Oct-2024 19:21 | 446464 | ||
| 52201_TS_DEWT_022011.nc | 07-Oct-2024 15:22 | 437858 | ||
| 52201_TS_DEWT_022013.nc | 07-Oct-2024 16:03 | 450005 | ||
| 52201_TS_DEWT_022017.nc | 07-Oct-2024 17:06 | 450321 | ||
| 52201_TS_DEWT_022018.nc | 07-Oct-2024 17:46 | 450180 | ||
| 52201_TS_DEWT_022019.nc | 07-Oct-2024 18:28 | 450594 | ||
| 52201_TS_DEWT_022020.nc | 07-Oct-2024 18:48 | 449397 | ||
| 52201_TS_DEWT_022024.nc | 07-Oct-2024 19:22 | 450278 | ||
| 52201_TS_DEWT_032011.nc | 07-Oct-2024 15:26 | 450176 | ||
| 52201_TS_DEWT_032017.nc | 07-Oct-2024 17:09 | 451389 | ||
| 52201_TS_DEWT_032018.nc | 07-Oct-2024 17:49 | 450505 | ||
| 52201_TS_DEWT_032020.nc | 07-Oct-2024 18:50 | 451394 | ||
| 52201_TS_DEWT_032023.nc | 07-Oct-2024 19:10 | 450255 | ||
| 52201_TS_DEWT_042010.nc | 07-Oct-2024 14:48 | 451397 | ||
| 52201_TS_DEWT_042011.nc | 07-Oct-2024 15:29 | 450239 | ||
| 52201_TS_DEWT_042017.nc | 07-Oct-2024 17:13 | 440393 | ||
| 52201_TS_DEWT_042018.nc | 07-Oct-2024 17:52 | 446536 | ||
| 52201_TS_DEWT_042020.nc | 07-Oct-2024 18:52 | 449620 | ||
| 52201_TS_DEWT_042023.nc | 07-Oct-2024 19:11 | 449909 | ||
| 52201_TS_DEWT_052010.nc | 07-Oct-2024 14:52 | 450064 | ||
| 52201_TS_DEWT_052011.nc | 07-Oct-2024 15:32 | 449444 | ||
| 52201_TS_DEWT_052016.nc | 07-Oct-2024 16:31 | 448877 | ||
| 52201_TS_DEWT_052017.nc | 07-Oct-2024 17:16 | 449291 | ||
| 52201_TS_DEWT_052018.nc | 07-Oct-2024 17:56 | 448318 | ||
| 52201_TS_DEWT_052020.nc | 07-Oct-2024 18:54 | 449557 | ||
| 52201_TS_DEWT_052023.nc | 07-Oct-2024 19:11 | 449658 | ||
| 52201_TS_DEWT_062010.nc | 07-Oct-2024 14:55 | 448463 | ||
| 52201_TS_DEWT_062011.nc | 07-Oct-2024 15:36 | 450237 | ||
| 52201_TS_DEWT_062016.nc | 07-Oct-2024 16:35 | 448231 | ||
| 52201_TS_DEWT_062017.nc | 07-Oct-2024 17:20 | 450753 | ||
| 52201_TS_DEWT_062018.nc | 07-Oct-2024 17:58 | 451000 | ||
| 52201_TS_DEWT_062020.nc | 07-Oct-2024 18:56 | 450531 | ||
| 52201_TS_DEWT_062023.nc | 07-Oct-2024 19:13 | 448234 | ||
| 52201_TS_DEWT_072010.nc | 07-Oct-2024 14:59 | 451052 | ||
| 52201_TS_DEWT_072011.nc | 07-Oct-2024 15:39 | 451240 | ||
| 52201_TS_DEWT_072014.nc | 07-Oct-2024 16:07 | 450717 | ||
| 52201_TS_DEWT_072016.nc | 07-Oct-2024 16:39 | 449915 | ||
| 52201_TS_DEWT_072017.nc | 07-Oct-2024 17:23 | 450788 | ||
| 52201_TS_DEWT_072018.nc | 07-Oct-2024 18:02 | 450081 | ||
| 52201_TS_DEWT_072019.nc | 07-Oct-2024 18:30 | 451242 | ||
| 52201_TS_DEWT_072020.nc | 07-Oct-2024 18:58 | 450440 | ||
| 52201_TS_DEWT_072023.nc | 07-Oct-2024 19:14 | 450198 | ||
| 52201_TS_DEWT_082010.nc | 07-Oct-2024 15:02 | 449144 | ||
| 52201_TS_DEWT_082011.nc | 07-Oct-2024 15:42 | 450205 | ||
| 52201_TS_DEWT_082014.nc | 07-Oct-2024 16:10 | 450142 | ||
| 52201_TS_DEWT_082016.nc | 07-Oct-2024 16:43 | 474009 | ||
| 52201_TS_DEWT_082017.nc | 07-Oct-2024 17:26 | 449737 | ||
| 52201_TS_DEWT_082018.nc | 07-Oct-2024 18:06 | 450026 | ||
| 52201_TS_DEWT_082019.nc | 07-Oct-2024 18:34 | 449248 | ||
| 52201_TS_DEWT_082020.nc | 07-Oct-2024 19:00 | 449159 | ||
| 52201_TS_DEWT_082023.nc | 07-Oct-2024 19:15 | 449845 | ||
| 52201_TS_DEWT_092010.nc | 07-Oct-2024 15:06 | 449190 | ||
| 52201_TS_DEWT_092011.nc | 07-Oct-2024 15:45 | 449819 | ||
| 52201_TS_DEWT_092012.nc | 07-Oct-2024 15:48 | 449691 | ||
| 52201_TS_DEWT_092014.nc | 07-Oct-2024 16:14 | 449405 | ||
| 52201_TS_DEWT_092016.nc | 07-Oct-2024 16:47 | 449363 | ||
| 52201_TS_DEWT_092017.nc | 07-Oct-2024 17:30 | 449118 | ||
| 52201_TS_DEWT_092018.nc | 07-Oct-2024 18:09 | 449859 | ||
| 52201_TS_DEWT_092019.nc | 07-Oct-2024 18:37 | 450169 | ||
| 52201_TS_DEWT_092020.nc | 07-Oct-2024 19:02 | 448991 | ||
| 52201_TS_DEWT_092023.nc | 07-Oct-2024 19:16 | 449858 | ||
| 52201_TS_DEWT_102010.nc | 07-Oct-2024 15:09 | 440494 | ||
| 52201_TS_DEWT_102012.nc | 07-Oct-2024 15:50 | 450509 | ||
| 52201_TS_DEWT_102014.nc | 07-Oct-2024 16:18 | 440709 | ||
| 52201_TS_DEWT_102016.nc | 07-Oct-2024 16:51 | 450412 | ||
| 52201_TS_DEWT_102017.nc | 07-Oct-2024 17:33 | 451048 | ||
| 52201_TS_DEWT_102018.nc | 07-Oct-2024 18:13 | 450765 | ||
| 52201_TS_DEWT_102019.nc | 07-Oct-2024 18:40 | 449728 | ||
| 52201_TS_DEWT_102020.nc | 07-Oct-2024 19:04 | 450705 | ||
| 52201_TS_DEWT_102023.nc | 07-Oct-2024 19:18 | 450037 | ||
| 52201_TS_DEWT_112010.nc | 07-Oct-2024 15:12 | 450876 | ||
| 52201_TS_DEWT_112012.nc | 07-Oct-2024 15:53 | 451143 | ||
| 52201_TS_DEWT_112014.nc | 07-Oct-2024 16:22 | 450979 | ||
| 52201_TS_DEWT_112016.nc | 07-Oct-2024 16:54 | 450177 | ||
| 52201_TS_DEWT_112017.nc | 07-Oct-2024 17:36 | 450790 | ||
| 52201_TS_DEWT_112018.nc | 07-Oct-2024 18:16 | 451788 | ||
| 52201_TS_DEWT_112019.nc | 07-Oct-2024 18:42 | 450785 | ||
| 52201_TS_DEWT_112020.nc | 07-Oct-2024 19:06 | 3679570 | ||
| 52201_TS_DEWT_112023.nc | 07-Oct-2024 19:19 | 2931095 | ||
| 52201_TS_DEWT_122010.nc | 07-Oct-2024 15:16 | 2855043 | ||
| 52201_TS_DEWT_122012.nc | 07-Oct-2024 15:56 | 4230815 | ||
| 52201_TS_DEWT_122014.nc | 07-Oct-2024 16:25 | 3027148 | ||
| 52201_TS_DEWT_122016.nc | 07-Oct-2024 16:58 | 3492382 | ||
| 52201_TS_DEWT_122017.nc | 07-Oct-2024 17:39 | 4342684 | ||
| 52201_TS_DEWT_122018.nc | 07-Oct-2024 18:20 | 450218 | ||
| 52201_TS_DEWT_122019.nc | 07-Oct-2024 18:44 | 4346046 | ||
| 52201_TS_DEWT_122020.nc | 07-Oct-2024 19:07 | 449264 | ||
| 52201_TS_DEWT_122023.nc | 07-Oct-2024 19:20 | 4253446 | ||